,,,PA_Meas_PMT16A,,PR_Meas_QMR101_102,,RH_Meas_QMH101,,SR_Meas_QMS101,,TA_Meas_QMH101,,GenWind,,GenWind,
date,time,status,PA,status,PR,status,RH,status,SR,status,TA,status,DirAvg,status,SpdAvg,
2012-06-29, 00:00:04,VALID,1009.7,VALID,0,VALID,104,VALID,0,VALID,23.1502,VALID,171,VALID,0.0375,
2012-06-29, 00:01:04,VALID,1009.72,VALID,0,VALID,104,VALID,0,VALID,23.129,VALID,171,VALID,0.248828,
2012-06-29, 00:02:04,VALID,1009.73,VALID,0,VALID,104,VALID,0,VALID,23.1095,VALID,171,VALID,0.259766,
2012-06-29, 00:03:04,VALID,1009.72,VALID,0,VALID,104,VALID,0,VALID,23.09,VALID,171,VALID,0.322656,
2012-06-29, 00:04:04,VALID,1009.7,VALID,0,VALID,104,VALID,0,VALID,23.0705,VALID,171,VALID,0.385156,
2012-06-29, 00:05:04,VALID,1009.7,VALID,0,VALID,104,VALID,0,VALID,23.0511,VALID,171,VALID,0.296875,
2012-06-29, 00:06:04,VALID,1009.7,VALID,0,VALID,104,VALID,0,VALID,23.0316,VALID,171,VALID,0.3875,
2012-06-29, 00:07:04,VALID,1009.7,VALID,0,VALID,104,VALID,0,VALID,23.0121,VALID,171,VALID,0.3375,
2012-06-29, 00:08:04,VALID,1009.65,VALID,0,VALID,104,VALID,0,VALID,23.0138,VALID,171,VALID,0.225391,
2012-06-29, 00:09:04,VALID,1009.65,VALID,0,VALID,104,VALID,0,VALID,22.9926,VALID,171,VALID,0.312109,
2012-06-29, 00:10:04,VALID,1009.63,VALID,0,VALID,104,VALID,0,VALID,22.9926,VALID,171,VALID,0.164063,
2012-06-29, 00:11:04,VALID,1009.64,VALID,0,VALID,104,VALID,0,VALID,22.9536,VALID,171,VALID,0,
2012-06-29, 00:12:04,VALID,1009.63,VALID,0,VALID,104,VALID,0,VALID,22.9749,VALID,171,VALID,0,
2012-06-29, 00:13:04,VALID,1009.66,VALID,0,VALID,104,VALID,0,VALID,22.9731,VALID,171,VALID,0,
2012-06-29, 00:14:04,VALID,1009.67,VALID,0,VALID,104,VALID,0,VALID,22.9536,VALID,171,VALID,0,
2012-06-29, 00:15:04,VALID,1009.68,VALID,0,VALID,104,VALID,0,VALID,22.9749,VALID,171,VALID,0,
2012-06-29, 00:16:04,VALID,1009.67,VALID,0,VALID,104,VALID,0,VALID,22.9554,VALID,171,VALID,0,
2012-06-29, 00:17:04,VALID,1009.67,VALID,0,VALID,104,VALID,0,VALID,22.8952,VALID,171,VALID,0,
2012-06-29, 00:18:04,VALID,1009.67,VALID,0,VALID,104,VALID,0,VALID,22.8952,VALID,171,VALID,0,
2012-06-29, 00:19:04,VALID,1009.67,VALID,0,VALID,104,VALID,0,VALID,22.8952,VALID,171,VALID,0,
2012-06-29, 00:20:04,VALID,1009.64,VALID,0,VALID,104,VALID,0,VALID,22.8952,VALID,171,VALID,0,
2012-06-29, 00:21:04,VALID,1009.63,VALID,0,VALID,104,VALID,0,VALID,22.8952,VALID,171,VALID,0,
2012-06-29, 00:22:04,VALID,1009.59,VALID,0,VALID,104,VALID,0,VALID,22.8952,VALID,171,VALID,0,
2012-06-29, 00:23:04,VALID,1009.56,VALID,0,VALID,104,VALID,0,VALID,22.8757,VALID,171,VALID,0,
2012-06-29, 00:24:04,VALID,1009.55,VALID,0,VALID,104,VALID,0.112112,VALID,22.874,VALID,171,VALID,0,
2012-06-29, 00:25:04,VALID,1009.52,VALID,0,VALID,104,VALID,0.112112,VALID,22.874,VALID,171,VALID,0,
2012-06-29, 00:26:04,VALID,1009.52,VALID,0,VALID,104,VALID,0.112112,VALID,22.874,VALID,171,VALID,0,
2012-06-29, 00:27:04,VALID,1009.48,VALID,0,VALID,104,VALID,0.112112,VALID,22.8935,VALID,171,VALID,0,
2012-06-29, 00:28:04,VALID,1009.5,VALID,0,VALID,104,VALID,0.112112,VALID,22.8935,VALID,171,VALID,0,
2012-06-29, 00:29:04,VALID,1009.46,VALID,0,VALID,104,VALID,0,VALID,22.9147,VALID,171,VALID,0.204688,
2012-06-29, 00:30:04,VALID,1009.44,VALID,0,VALID,104,VALID,0.112112,VALID,22.9342,VALID,171,VALID,0.366797,
2012-06-29, 00:31:04,VALID,1009.44,VALID,0,VALID,104,VALID,0.112112,VALID,22.9129,VALID,171,VALID,0.195703,
2012-06-29, 00:32:04,VALID,1009.43,VALID,0,VALID,104,VALID,0,VALID,22.8935,VALID,171,VALID,0,
2012-06-29, 00:33:04,VALID,1009.41,VALID,0,VALID,104,VALID,0,VALID,22.8952,VALID,171,VALID,0,
2012-06-29, 00:34:04,VALID,1009.43,VALID,0,VALID,104,VALID,0.112112,VALID,22.874,VALID,171,VALID,0.184375,
2012-06-29, 00:35:04,VALID,1009.41,VALID,0,VALID,104,VALID,0.112112,VALID,22.874,VALID,171,VALID,0.215234,
2012-06-29, 00:36:04,VALID,1009.42,VALID,0,VALID,104,VALID,0.112112,VALID,22.874,VALID,171,VALID,0.160156,
2012-06-29, 00:37:04,VALID,1009.43,VALID,0,VALID,104,VALID,0.112112,VALID,22.874,VALID,171,VALID,0,
2012-06-29, 00:38:04,VALID,1009.41,VALID,0,VALID,104,VALID,0.112112,VALID,22.8545,VALID,171,VALID,0,
2012-06-29, 00:39:04,VALID,1009.41,VALID,0,VALID,104,VALID,0,VALID,22.8952,VALID,171,VALID,0,
2012-06-29, 00:40:04,VALID,1009.39,VALID,0,VALID,104,VALID,0.112112,VALID,22.8757,VALID,171,VALID,0,
2012-06-29, 00:41:04,VALID,1009.38,VALID,0,VALID,104,VALID,0.112112,VALID,22.8952,VALID,171,VALID,0,
2012-06-29, 00:42:04,VALID,1009.35,VALID,0,VALID,104,VALID,0,VALID,22.8757,VALID,171,VALID,0,
2012-06-29, 00:43:04,VALID,1009.34,VALID,0,VALID,104,VALID,0.112112,VALID,22.8757,VALID,171,VALID,0,
2012-06-29, 00:44:04,VALID,1009.34,VALID,0,VALID,104,VALID,0.112112,VALID,22.8952,VALID,171,VALID,0,
2012-06-29, 00:45:04,VALID,1009.32,VALID,0,VALID,104,VALID,0,VALID,22.8952,VALID,171,VALID,0,
2012-06-29, 00:46:04,VALID,1009.28,VALID,0,VALID,104,VALID,0,VALID,22.8952,VALID,171,VALID,0.319922,
2012-06-29, 00:47:04,VALID,1009.27,VALID,0,VALID,104,VALID,0,VALID,22.8952,VALID,171,VALID,0.297656,
2012-06-29, 00:48:04,VALID,1009.24,VALID,0,VALID,104,VALID,0,VALID,22.8545,VALID,171,VALID,0.141797,
2012-06-29, 00:49:04,VALID,1009.22,VALID,0,VALID,104,VALID,0.112112,VALID,22.8545,VALID,171,VALID,0.182812,
2012-06-29, 00:50:04,VALID,1009.21,VALID,0,VALID,104,VALID,0.112112,VALID,22.8757,VALID,171,VALID,0.316406,
2012-06-29, 00:51:04,VALID,1009.22,VALID,0,VALID,104,VALID,0,VALID,22.8757,VALID,171,VALID,0.162109,
2012-06-29, 00:52:04,VALID,1009.2,VALID,0,VALID,104,VALID,0.112112,VALID,22.8562,VALID,171,VALID,0.155859,
2012-06-29, 00:53:04,VALID,1009.18,VALID,0,VALID,104,VALID,0.112112,VALID,22.8562,VALID,171,VALID,0.270703,
2012-06-29, 00:54:04,VALID,1009.16,VALID,0,VALID,104,VALID,0.112112,VALID,22.8368,VALID,171,VALID,0.119922,
2012-06-29, 00:55:04,VALID,1009.19,VALID,0,VALID,104,VALID,0,VALID,22.8368,VALID,171,VALID,0.376172,
2012-06-29, 00:56:04,VALID,1009.19,VALID,0,VALID,104,VALID,0.112112,VALID,22.8562,VALID,171,VALID,0.199609,
2012-06-29, 00:57:04,VALID,1009.19,VALID,0,VALID,104,VALID,0,VALID,22.7961,VALID,171,VALID,0.0269531,
2012-06-29, 00:58:04,VALID,1009.16,VALID,0,VALID,104,VALID,0,VALID,22.8368,VALID,171,VALID,0.135937,
2012-06-29, 00:59:04,VALID,1009.18,VALID,0,VALID,104,VALID,0.112112,VALID,22.8173,VALID,171,VALID,0.0816406,
2012-06-29, 01:00:04,VALID,1009.16,VALID,0,VALID,104,VALID,0.112112,VALID,22.7766,VALID,171,VALID,0,
2012-06-29, 01:01:04,VALID,1009.13,VALID,0,VALID,104,VALID,0,VALID,22.7978,VALID,171,VALID,0,
2012-06-29, 01:02:04,VALID,1009.12,VALID,0,VALID,104,VALID,0.112112,VALID,22.7978,VALID,171,VALID,0,
2012-06-29, 01:03:04,VALID,1009.1,VALID,0,VALID,104,VALID,0.112112,VALID,22.7766,VALID,171,VALID,0,
2012-06-29, 01:04:04,VALID,1009.09,VALID,0,VALID,104,VALID,0.112112,VALID,22.7571,VALID,171,VALID,0,
2012-06-29, 01:05:04,VALID,1009.04,VALID,0,VALID,104,VALID,0.112112,VALID,22.7588,VALID,171,VALID,0,
2012-06-29, 01:06:04,VALID,1009.04,VALID,0,VALID,104,VALID,0.112112,VALID,22.7588,VALID,171,VALID,0,
2012-06-29, 01:07:04,VALID,1009.01,VALID,0,VALID,104,VALID,0.112112,VALID,22.7394,VALID,171,VALID,0,
2012-06-29, 01:08:04,VALID,1009.01,VALID,0,VALID,104,VALID,0.112112,VALID,22.7199,VALID,171,VALID,0,
2012-06-29, 01:09:04,VALID,1008.98,VALID,0,VALID,104,VALID,0,VALID,22.7004,VALID,171,VALID,0,
2012-06-29, 01:10:04,VALID,1008.97,VALID,0,VALID,104,VALID,0,VALID,22.6809,VALID,171,VALID,0,
2012-06-29, 01:11:04,VALID,1008.96,VALID,0,VALID,104,VALID,0.112112,VALID,22.6597,VALID,171,VALID,0,
2012-06-29, 01:12:04,VALID,1008.98,VALID,0,VALID,104,VALID,0.112112,VALID,22.6614,VALID,171,VALID,0,
2012-06-29, 01:13:04,VALID,1008.94,VALID,0,VALID,104,VALID,0.112112,VALID,22.6402,VALID,171,VALID,0,
2012-06-29, 01:14:04,VALID,1008.94,VALID,0,VALID,104,VALID,0.112112,VALID,22.6614,VALID,171,VALID,0,
2012-06-29, 01:15:04,VALID,1008.94,VALID,0,VALID,104,VALID,0.112112,VALID,22.6826,VALID,171,VALID,0,
2012-06-29, 01:16:04,VALID,1008.91,VALID,0,VALID,104,VALID,0,VALID,22.642,VALID,171,VALID,0,
2012-06-29, 01:17:04,VALID,1008.92,VALID,0,VALID,104,VALID,0.112112,VALID,22.6614,VALID,171,VALID,0,
2012-06-29, 01:18:04,VALID,1008.9,VALID,0,VALID,104,VALID,0,VALID,22.6208,VALID,171,VALID,0,
2012-06-29, 01:19:04,VALID,1008.88,VALID,0,VALID,104,VALID,0,VALID,22.642,VALID,171,VALID,0,
2012-06-29, 01:20:04,VALID,1008.89,VALID,0,VALID,104,VALID,0.112112,VALID,22.6013,VALID,171,VALID,0,
2012-06-29, 01:21:04,VALID,1008.87,VALID,0,VALID,104,VALID,0,VALID,22.6225,VALID,171,VALID,0,
2012-06-29, 01:22:04,VALID,1008.85,VALID,0,VALID,104,VALID,0.112112,VALID,22.603,VALID,171,VALID,0,
2012-06-29, 01:23:04,VALID,1008.86,VALID,0,VALID,104,VALID,0,VALID,22.5835,VALID,171,VALID,0,
2012-06-29, 01:24:04,VALID,1008.84,VALID,0,VALID,104,VALID,0,VALID,22.5835,VALID,171,VALID,0,
2012-06-29, 01:25:04,VALID,1008.84,VALID,0,VALID,104,VALID,0,VALID,22.5835,VALID,171,VALID,0,
2012-06-29, 01:26:04,VALID,1008.87,VALID,0,VALID,104,VALID,0,VALID,22.5835,VALID,171,VALID,0,
2012-06-29, 01:27:04,VALID,1008.87,VALID,0,VALID,104,VALID,0,VALID,22.603,VALID,171,VALID,0,
2012-06-29, 01:28:04,VALID,1008.87,VALID,0,VALID,104,VALID,0,VALID,22.6013,VALID,171,VALID,0,
2012-06-29, 01:29:04,VALID,1008.87,VALID,0,VALID,104,VALID,0,VALID,22.5818,VALID,171,VALID,0,
2012-06-29, 01:30:04,VALID,1008.9,VALID,0,VALID,104,VALID,0,VALID,22.6013,VALID,171,VALID,0,
2012-06-29, 01:31:04,VALID,1008.87,VALID,0,VALID,104,VALID,0,VALID,22.642,VALID,171,VALID,0,
2012-06-29, 01:32:04,VALID,1008.88,VALID,0,VALID,104,VALID,0.112112,VALID,22.6208,VALID,171,VALID,0,
2012-06-29, 01:33:04,VALID,1008.88,VALID,0,VALID,104,VALID,0.112112,VALID,22.6225,VALID,171,VALID,0,
2012-06-29, 01:34:04,VALID,1008.89,VALID,0,VALID,104,VALID,0,VALID,22.5835,VALID,171,VALID,0,
2012-06-29, 01:35:04,VALID,1008.9,VALID,0,VALID,104,VALID,0,VALID,22.603,VALID,171,VALID,0,
2012-06-29, 01:36:04,VALID,1008.88,VALID,0,VALID,104,VALID,0,VALID,22.603,VALID,171,VALID,0,
2012-06-29, 01:37:04,VALID,1008.89,VALID,0,VALID,104,VALID,0,VALID,22.6013,VALID,171,VALID,0,
2012-06-29, 01:38:04,VALID,1008.88,VALID,0,VALID,104,VALID,0.112112,VALID,22.5818,VALID,171,VALID,0,
2012-06-29, 01:39:04,VALID,1008.88,VALID,0,VALID,104,VALID,0,VALID,22.5446,VALID,171,VALID,0,
2012-06-29, 01:40:04,VALID,1008.91,VALID,0,VALID,104,VALID,0,VALID,22.4844,VALID,171,VALID,0,
2012-06-29, 01:41:04,VALID,1008.9,VALID,0,VALID,104,VALID,0.112112,VALID,22.5056,VALID,171,VALID,0,
2012-06-29, 01:42:04,VALID,1008.91,VALID,0,VALID,104,VALID,0,VALID,22.465,VALID,171,VALID,0,
2012-06-29, 01:43:04,VALID,1008.9,VALID,0,VALID,104,VALID,0,VALID,22.4455,VALID,171,VALID,0,
2012-06-29, 01:44:04,VALID,1008.9,VALID,0,VALID,104,VALID,0.112112,VALID,22.426,VALID,171,VALID,0,
2012-06-29, 01:45:04,VALID,1008.9,VALID,0,VALID,104,VALID,0,VALID,22.426,VALID,171,VALID,0,
2012-06-29, 01:46:04,VALID,1008.88,VALID,0,VALID,104,VALID,0,VALID,22.4082,VALID,171,VALID,0,
2012-06-29, 01:47:04,VALID,1008.87,VALID,0,VALID,104,VALID,0,VALID,22.3481,VALID,171,VALID,0,
2012-06-29, 01:48:04,VALID,1008.86,VALID,0,VALID,104,VALID,0.112112,VALID,22.3481,VALID,171,VALID,0,
2012-06-29, 01:49:04,VALID,1008.87,VALID,0,VALID,104,VALID,0,VALID,22.3693,VALID,171,VALID,0,
2012-06-29, 01:50:04,VALID,1008.84,VALID,0,VALID,104,VALID,0,VALID,22.3676,VALID,171,VALID,0,
2012-06-29, 01:51:04,VALID,1008.84,VALID,0,VALID,104,VALID,0.112112,VALID,22.3887,VALID,171,VALID,0,
2012-06-29, 01:52:04,VALID,1008.83,VALID,0,VALID,104,VALID,0,VALID,22.3481,VALID,171,VALID,0,
2012-06-29, 01:53:04,VALID,1008.83,VALID,0,VALID,104,VALID,0,VALID,22.3303,VALID,171,VALID,0,
2012-06-29, 01:54:04,VALID,1008.84,VALID,0,VALID,104,VALID,0,VALID,22.3303,VALID,171,VALID,0,
2012-06-29, 01:55:04,VALID,1008.82,VALID,0,VALID,104,VALID,0,VALID,22.3303,VALID,171,VALID,0,
2012-06-29, 01:56:04,VALID,1008.82,VALID,0,VALID,104,VALID,0,VALID,22.3108,VALID,171,VALID,0,
2012-06-29, 01:57:04,VALID,1008.83,VALID,0,VALID,104,VALID,0,VALID,22.2897,VALID,171,VALID,0,
2012-06-29, 01:58:04,VALID,1008.82,VALID,0,VALID,104,VALID,0.112112,VALID,22.2914,VALID,171,VALID,0,
2012-06-29, 01:59:04,VALID,1008.81,VALID,0,VALID,104,VALID,0,VALID,22.2524,VALID,171,VALID,0,
2012-06-29, 02:00:04,VALID,1008.81,VALID,0,VALID,104,VALID,0,VALID,22.2312,VALID,171,VALID,0,
2012-06-29, 02:01:04,VALID,1008.79,VALID,0,VALID,104,VALID,0.112112,VALID,22.2312,VALID,171,VALID,0,
2012-06-29, 02:02:04,VALID,1008.76,VALID,0,VALID,104,VALID,0.112112,VALID,22.2524,VALID,171,VALID,0,
2012-06-29, 02:03:04,VALID,1008.78,VALID,0,VALID,104,VALID,0,VALID,22.2312,VALID,171,VALID,0,
2012-06-29, 02:04:04,VALID,1008.79,VALID,0,VALID,104,VALID,0.112112,VALID,22.2507,VALID,171,VALID,0,
2012-06-29, 02:05:04,VALID,1008.78,VALID,0,VALID,104,VALID,0.112112,VALID,22.2719,VALID,171,VALID,0,
2012-06-29, 02:06:04,VALID,1008.79,VALID,0,VALID,104,VALID,0.112112,VALID,22.2719,VALID,171,VALID,0,
2012-06-29, 02:07:04,VALID,1008.8,VALID,0,VALID,104,VALID,0.112112,VALID,22.2507,VALID,171,VALID,0,
2012-06-29, 02:08:04,VALID,1008.79,VALID,0,VALID,104,VALID,0,VALID,22.2312,VALID,171,VALID,0,
2012-06-29, 02:09:04,VALID,1008.79,VALID,0,VALID,104,VALID,0,VALID,22.2329,VALID,171,VALID,0,
2012-06-29, 02:10:04,VALID,1008.79,VALID,0,VALID,104,VALID,0,VALID,22.2914,VALID,171,VALID,0,
2012-06-29, 02:11:04,VALID,1008.76,VALID,0,VALID,104,VALID,0,VALID,22.332,VALID,171,VALID,0,
2012-06-29, 02:12:04,VALID,1008.79,VALID,0,VALID,104,VALID,0,VALID,22.3498,VALID,171,VALID,0,
2012-06-29, 02:13:04,VALID,1008.8,VALID,0,VALID,104,VALID,0,VALID,22.3303,VALID,171,VALID,0,
2012-06-29, 02:14:04,VALID,1008.77,VALID,0,VALID,104,VALID,0,VALID,22.2719,VALID,171,VALID,0,
2012-06-29, 02:15:04,VALID,1008.82,VALID,0,VALID,104,VALID,0,VALID,22.2541,VALID,171,VALID,0,
2012-06-29, 02:16:04,VALID,1008.81,VALID,0,VALID,104,VALID,0,VALID,22.2541,VALID,171,VALID,0.207813,
2012-06-29, 02:17:04,VALID,1008.8,VALID,0,VALID,104,VALID,0,VALID,22.2134,VALID,171,VALID,0.435547,
2012-06-29, 02:18:04,VALID,1008.83,VALID,0,VALID,104,VALID,0,VALID,22.2346,VALID,171,VALID,0.33125,
2012-06-29, 02:19:04,VALID,1008.83,VALID,0,VALID,104,VALID,0,VALID,22.194,VALID,171,VALID,0,
2012-06-29, 02:20:04,VALID,1008.84,VALID,0,VALID,104,VALID,0,VALID,22.1745,VALID,171,VALID,0,
2012-06-29, 02:21:04,VALID,1008.83,VALID,0,VALID,104,VALID,0,VALID,22.1745,VALID,171,VALID,0,
2012-06-29, 02:22:04,VALID,1008.84,VALID,0,VALID,104,VALID,0,VALID,22.1567,VALID,171,VALID,0,
2012-06-29, 02:23:04,VALID,1008.84,VALID,0,VALID,104,VALID,0,VALID,22.1762,VALID,171,VALID,0,
2012-06-29, 02:24:04,VALID,1008.88,VALID,0,VALID,104,VALID,0,VALID,22.155,VALID,171,VALID,0,
2012-06-29, 02:25:04,VALID,1008.88,VALID,0,VALID,104,VALID,0,VALID,22.155,VALID,171,VALID,0,
2012-06-29, 02:26:04,VALID,1008.88,VALID,0,VALID,104,VALID,0,VALID,22.1762,VALID,171,VALID,0.155469,
2012-06-29, 02:27:04,VALID,1008.88,VALID,0,VALID,104,VALID,0,VALID,22.1567,VALID,171,VALID,0,
2012-06-29, 02:28:04,VALID,1008.87,VALID,0,VALID,104,VALID,0,VALID,22.1355,VALID,171,VALID,0,
2012-06-29, 02:29:04,VALID,1008.87,VALID,0,VALID,104,VALID,0,VALID,22.1567,VALID,171,VALID,0,
2012-06-29, 02:30:04,VALID,1008.87,VALID,0,VALID,104,VALID,0,VALID,22.1372,VALID,171,VALID,0,
2012-06-29, 02:31:04,VALID,1008.85,VALID,0,VALID,104,VALID,0,VALID,22.155,VALID,171,VALID,0,
2012-06-29, 02:32:04,VALID,1008.81,VALID,0,VALID,104,VALID,0,VALID,22.1957,VALID,171,VALID,0,
2012-06-29, 02:33:04,VALID,1008.8,VALID,0,VALID,104,VALID,0,VALID,22.2151,VALID,171,VALID,0.126563,
2012-06-29, 02:34:04,VALID,1008.81,VALID,0,VALID,104,VALID,0,VALID,22.1957,VALID,171,VALID,0,
2012-06-29, 02:35:04,VALID,1008.79,VALID,0,VALID,104,VALID,0,VALID,22.1957,VALID,171,VALID,0,
2012-06-29, 02:36:04,VALID,1008.8,VALID,0,VALID,104,VALID,0,VALID,22.1957,VALID,171,VALID,0,
2012-06-29, 02:37:04,VALID,1008.79,VALID,0,VALID,104,VALID,0,VALID,22.1745,VALID,171,VALID,0,
2012-06-29, 02:38:04,VALID,1008.78,VALID,0,VALID,104,VALID,0,VALID,22.2151,VALID,171,VALID,0,
2012-06-29, 02:39:04,VALID,1008.78,VALID,0,VALID,104,VALID,0,VALID,22.194,VALID,171,VALID,0,
2012-06-29, 02:40:04,VALID,1008.77,VALID,0,VALID,104,VALID,0.112112,VALID,22.2134,VALID,171,VALID,0,
2012-06-29, 02:41:04,VALID,1008.78,VALID,0,VALID,104,VALID,0,VALID,22.1728,VALID,171,VALID,0,
2012-06-29, 02:42:04,VALID,1008.78,VALID,0,VALID,104,VALID,0.112112,VALID,22.2118,VALID,171,VALID,0,
2012-06-29, 02:43:04,VALID,1008.75,VALID,0,VALID,104,VALID,0.112112,VALID,22.194,VALID,171,VALID,0,
2012-06-29, 02:44:04,VALID,1008.75,VALID,0,VALID,104,VALID,0.112112,VALID,22.155,VALID,171,VALID,0,
2012-06-29, 02:45:04,VALID,1008.72,VALID,0,VALID,104,VALID,0.112112,VALID,22.1339,VALID,171,VALID,0,
2012-06-29, 02:46:04,VALID,1008.73,VALID,0,VALID,104,VALID,0.112112,VALID,22.155,VALID,171,VALID,0,
2012-06-29, 02:47:04,VALID,1008.73,VALID,0,VALID,104,VALID,0,VALID,22.155,VALID,171,VALID,0,
2012-06-29, 02:48:04,VALID,1008.72,VALID,0,VALID,104,VALID,0,VALID,22.1339,VALID,171,VALID,0,
2012-06-29, 02:49:04,VALID,1008.73,VALID,0,VALID,104,VALID,0,VALID,22.1355,VALID,171,VALID,0,
2012-06-29, 02:50:04,VALID,1008.71,VALID,0,VALID,104,VALID,0.112112,VALID,22.1144,VALID,171,VALID,0.151562,
2012-06-29, 02:51:04,VALID,1008.72,VALID,0,VALID,104,VALID,0.112112,VALID,22.1339,VALID,171,VALID,0.104297,
2012-06-29, 02:52:04,VALID,1008.71,VALID,0,VALID,104,VALID,0.112112,VALID,22.1533,VALID,171,VALID,0.158203,
2012-06-29, 02:53:04,VALID,1008.73,VALID,0,VALID,104,VALID,0.112112,VALID,22.1745,VALID,171,VALID,0,
2012-06-29, 02:54:04,VALID,1008.71,VALID,0,VALID,104,VALID,0.112112,VALID,22.194,VALID,171,VALID,0,
2012-06-29, 02:55:04,VALID,1008.73,VALID,0,VALID,104,VALID,0.112112,VALID,22.1745,VALID,171,VALID,0,
2012-06-29, 02:56:04,VALID,1008.74,VALID,0,VALID,104,VALID,0,VALID,22.1355,VALID,171,VALID,0,
2012-06-29, 02:57:04,VALID,1008.71,VALID,0,VALID,104,VALID,0,VALID,22.056,VALID,171,VALID,0.269922,
2012-06-29, 02:58:04,VALID,1008.73,VALID,0,VALID,104,VALID,0.112112,VALID,22.056,VALID,171,VALID,0.144531,
2012-06-29, 02:59:04,VALID,1008.74,VALID,0,VALID,104,VALID,0,VALID,22.0576,VALID,171,VALID,0.183203,
2012-06-29, 03:00:04,VALID,1008.75,VALID,0,VALID,104,VALID,0,VALID,22.017,VALID,171,VALID,0.162109,
2012-06-29, 03:01:04,VALID,1008.77,VALID,0,VALID,104,VALID,0,VALID,22.0382,VALID,171,VALID,0,
2012-06-29, 03:02:04,VALID,1008.78,VALID,0,VALID,104,VALID,0.112112,VALID,22.017,VALID,171,VALID,0,
2012-06-29, 03:03:04,VALID,1008.8,VALID,0,VALID,104,VALID,0.112112,VALID,22.0382,VALID,171,VALID,0,
2012-06-29, 03:04:04,VALID,1008.78,VALID,0,VALID,104,VALID,0.112112,VALID,22.0771,VALID,171,VALID,0,
2012-06-29, 03:05:04,VALID,1008.8,VALID,0,VALID,104,VALID,0.112112,VALID,22.1355,VALID,171,VALID,0,
2012-06-29, 03:06:04,VALID,1008.8,VALID,0,VALID,104,VALID,0,VALID,22.1355,VALID,171,VALID,0.126563,
2012-06-29, 03:07:04,VALID,1008.8,VALID,0,VALID,104,VALID,0,VALID,22.1161,VALID,171,VALID,0,
2012-06-29, 03:08:04,VALID,1008.75,VALID,0,VALID,104,VALID,0.112112,VALID,22.1355,VALID,171,VALID,0,
2012-06-29, 03:09:04,VALID,1008.77,VALID,0,VALID,104,VALID,0,VALID,22.0966,VALID,171,VALID,0,
2012-06-29, 03:10:04,VALID,1008.78,VALID,0,VALID,104,VALID,0,VALID,22.056,VALID,171,VALID,0,
2012-06-29, 03:11:04,VALID,1008.75,VALID,0,VALID,104,VALID,0.112112,VALID,22.0382,VALID,171,VALID,0,
2012-06-29, 03:12:04,VALID,1008.73,VALID,0,VALID,104,VALID,0.112112,VALID,22.0365,VALID,171,VALID,0,
2012-06-29, 03:13:04,VALID,1008.75,VALID,0,VALID,104,VALID,0.112112,VALID,22.0365,VALID,171,VALID,0.0164062,
2012-06-29, 03:14:04,VALID,1008.73,VALID,0,VALID,104,VALID,0.112112,VALID,22.017,VALID,171,VALID,0.0519531,
2012-06-29, 03:15:04,VALID,1008.75,VALID,0,VALID,104,VALID,0.112112,VALID,22.0382,VALID,171,VALID,0.177344,
2012-06-29, 03:16:04,VALID,1008.71,VALID,0,VALID,104,VALID,0.112112,VALID,22.0382,VALID,171,VALID,0.00742187,
2012-06-29, 03:17:04,VALID,1008.71,VALID,0,VALID,104,VALID,0,VALID,21.9992,VALID,171,VALID,0.317578,
2012-06-29, 03:18:04,VALID,1008.73,VALID,0,VALID,104,VALID,0.112112,VALID,22.0187,VALID,171,VALID,0.249219,
2012-06-29, 03:19:04,VALID,1008.71,VALID,0,VALID,104,VALID,0.112112,VALID,21.9992,VALID,171,VALID,0.00273437,
2012-06-29, 03:20:04,VALID,1008.72,VALID,0,VALID,104,VALID,0.112112,VALID,22.0187,VALID,171,VALID,0.247266,
2012-06-29, 03:21:04,VALID,1008.72,VALID,0,VALID,104,VALID,0,VALID,21.9992,VALID,171,VALID,0.233984,
2012-06-29, 03:22:04,VALID,1008.76,VALID,0,VALID,104,VALID,0,VALID,21.9797,VALID,171,VALID,0.241797,
2012-06-29, 03:23:04,VALID,1008.74,VALID,0,VALID,104,VALID,0,VALID,21.9992,VALID,171,VALID,0.0929687,
2012-06-29, 03:24:04,VALID,1008.73,VALID,0,VALID,104,VALID,0,VALID,21.9975,VALID,171,VALID,0,
2012-06-29, 03:25:04,VALID,1008.79,VALID,0,VALID,104,VALID,0,VALID,21.9992,VALID,171,VALID,0,
2012-06-29, 03:26:04,VALID,1008.79,VALID,0,VALID,104,VALID,0.112112,VALID,21.9586,VALID,171,VALID,0,
2012-06-29, 03:27:04,VALID,1008.78,VALID,0,VALID,104,VALID,0,VALID,21.9797,VALID,171,VALID,0,
2012-06-29, 03:28:04,VALID,1008.78,VALID,0,VALID,104,VALID,0,VALID,22.0187,VALID,171,VALID,0,
2012-06-29, 03:29:04,VALID,1008.77,VALID,0,VALID,104,VALID,0,VALID,21.9992,VALID,171,VALID,0,
2012-06-29, 03:30:04,VALID,1008.77,VALID,0,VALID,104,VALID,0.112112,VALID,21.9992,VALID,171,VALID,0,
2012-06-29, 03:31:04,VALID,1008.77,VALID,0,VALID,104,VALID,0.112112,VALID,21.9781,VALID,171,VALID,0,
2012-06-29, 03:32:04,VALID,1008.8,VALID,0,VALID,104,VALID,0.112112,VALID,21.9603,VALID,171,VALID,0,
2012-06-29, 03:33:04,VALID,1008.8,VALID,0,VALID,104,VALID,0,VALID,21.9586,VALID,171,VALID,0,
2012-06-29, 03:34:04,VALID,1008.82,VALID,0,VALID,104,VALID,0,VALID,21.9603,VALID,171,VALID,0,
2012-06-29, 03:35:04,VALID,1008.82,VALID,0,VALID,104,VALID,0,VALID,21.9408,VALID,171,VALID,0,
2012-06-29, 03:36:04,VALID,1008.85,VALID,0,VALID,104,VALID,0,VALID,21.9213,VALID,171,VALID,0,
2012-06-29, 03:37:04,VALID,1008.84,VALID,0,VALID,104,VALID,0,VALID,21.9018,VALID,171,VALID,0,
2012-06-29, 03:38:04,VALID,1008.83,VALID,0,VALID,104,VALID,0,VALID,21.8418,VALID,171,VALID,0,
2012-06-29, 03:39:04,VALID,1008.84,VALID,0,VALID,104,VALID,0.112112,VALID,21.8824,VALID,171,VALID,0,
2012-06-29, 03:40:04,VALID,1008.84,VALID,0,VALID,104,VALID,0,VALID,21.8807,VALID,171,VALID,0,
2012-06-29, 03:41:04,VALID,1008.82,VALID,0,VALID,104,VALID,0.112112,VALID,21.8612,VALID,171,VALID,0,
2012-06-29, 03:42:04,VALID,1008.81,VALID,0,VALID,104,VALID,0.112112,VALID,21.8824,VALID,171,VALID,0,
2012-06-29, 03:43:04,VALID,1008.8,VALID,0,VALID,104,VALID,0.112112,VALID,21.8807,VALID,171,VALID,0,
2012-06-29, 03:44:04,VALID,1008.79,VALID,0,VALID,104,VALID,0,VALID,21.8612,VALID,171,VALID,0,
2012-06-29, 03:45:04,VALID,1008.78,VALID,0,VALID,104,VALID,0.112112,VALID,21.9018,VALID,171,VALID,0,
2012-06-29, 03:46:04,VALID,1008.77,VALID,0,VALID,104,VALID,0.112112,VALID,21.9018,VALID,171,VALID,0,
2012-06-29, 03:47:04,VALID,1008.75,VALID,0,VALID,104,VALID,0.112112,VALID,21.9018,VALID,171,VALID,0,
2012-06-29, 03:48:04,VALID,1008.76,VALID,0,VALID,104,VALID,0,VALID,21.9018,VALID,171,VALID,0,
2012-06-29, 03:49:04,VALID,1008.76,VALID,0,VALID,104,VALID,0,VALID,21.8824,VALID,171,VALID,0,
2012-06-29, 03:50:04,VALID,1008.76,VALID,0,VALID,104,VALID,0.112112,VALID,21.8824,VALID,171,VALID,0.253906,
2012-06-29, 03:51:04,VALID,1008.75,VALID,0,VALID,104,VALID,0.112112,VALID,21.8612,VALID,171,VALID,0.00585938,
2012-06-29, 03:52:04,VALID,1008.78,VALID,0,VALID,104,VALID,0,VALID,21.8629,VALID,171,VALID,0.274609,
2012-06-29, 03:53:04,VALID,1008.78,VALID,0,VALID,104,VALID,0.112112,VALID,21.8824,VALID,171,VALID,0.370703,
2012-06-29, 03:54:04,VALID,1008.8,VALID,0,VALID,104,VALID,0,VALID,21.884,VALID,171,VALID,0.433984,
2012-06-29, 03:55:04,VALID,1008.77,VALID,0,VALID,104,VALID,0,VALID,21.8824,VALID,171,VALID,0.176563,
2012-06-29, 03:56:04,VALID,1008.78,VALID,0,VALID,104,VALID,0,VALID,21.884,VALID,171,VALID,0.0425781,
2012-06-29, 03:57:04,VALID,1008.76,VALID,0,VALID,104,VALID,0,VALID,21.9035,VALID,171,VALID,0.351563,
2012-06-29, 03:58:04,VALID,1008.75,VALID,0,VALID,104,VALID,0,VALID,21.884,VALID,171,VALID,0.342578,